Location: Banska Bystrica
(0.0000°N, 19.1500°E)
Time: 15:34:30
(UTC+02:00)

Ariane H10-3 - Visible Passes

Search period start: 19 May 2019 00:00
Search period end: 29 May 2019 00:00
Orbit: 291 x 28808 km, 7.0° (Epoch: 18 May)

Date Brightness Start Highest point End Pass type
(mag) Time Alt. Az. Time Alt. Az. Time Alt. Az.
19 May 5.8 04:04:09 10° W 05:40:10 27° W 11:14:24 10° E visible
19 May 5.4 19:54:31 10° WNW 20:02:18 68° N 03:12:06 10° E visible
20 May 6.3 21:04:11 10° WNW 21:17:17 75° N 04:35:34 10° E visible
21 May 7.2 22:14:24 10° WNW 22:38:37 81° N 05:51:53 10° E visible
22 May 7.5 23:25:36 10° W 00:24:59 86° NNE 07:04:56 10° E visible
24 May 7.8 00:38:27 10° W 02:36:58 75° W 08:16:13 10° E visible
25 May 7.1 01:54:24 10° W 03:50:15 54° W 09:26:24 10° E visible
26 May 6.2 03:17:11 10° W 05:01:26 34° W 10:35:57 10° E visible
26 May 5.1 19:16:01 10° WNW 19:22:31 64° N 02:24:22 10° E visible
27 May 5.3 05:04:23 10° W 06:10:24 16° W 11:45:04 10° E visible
27 May 6.0 20:25:16 10° WNW 20:36:02 73° N 03:52:45 10° E visible
